Time,TemperatureF,DewpointF,PressureIn,WindDirection,WindDirectionDegrees,WindSpeedMPH,WindSpeedGustMPH,Humidity,HourlyPrecipIn,Conditions,Clouds,dailyrainin,SoftwareType,DateUTC
2013-05-15 00:03:00,72.0,57.0,29.98,SSW,209,1.0,-999.0,59,-99.99,,,-99.99,,2013-05-15 04:03:00,
2013-05-15 00:12:00,72.0,57.0,29.98,SSW,209,1.0,-999.0,59,-99.99,,,-99.99,,2013-05-15 04:12:00,
2013-05-15 00:24:00,72.0,57.0,29.99,SW,221,0.0,-999.0,60,-99.99,,,-99.99,,2013-05-15 04:24:00,
2013-05-15 00:33:00,72.0,57.0,29.99,WSW,249,2.0,-999.0,60,-99.99,,,-99.99,,2013-05-15 04:33:00,
2013-05-15 00:43:00,72.0,57.0,29.99,WSW,249,2.0,-999.0,60,-99.99,,,-99.99,,2013-05-15 04:43:00,
2013-05-15 00:52:00,73.0,58.0,29.98,West,267,5.0,-999.0,59,-99.99,,,-99.99,,2013-05-15 04:52:00,
2013-05-15 01:02:00,73.0,58.0,29.98,WSW,246,5.0,-999.0,59,-99.99,,,-99.99,,2013-05-15 05:02:00,
2013-05-15 01:12:00,73.0,58.0,29.98,WSW,246,5.0,-999.0,59,-99.99,,,-99.99,,2013-05-15 05:12:00,
2013-05-15 01:22:00,72.0,57.0,29.97,West,269,5.0,-999.0,60,-99.99,,,-99.99,,2013-05-15 05:22:00,
2013-05-15 01:32:00,72.0,57.0,29.97,WNW,282,6.0,-999.0,59,-99.99,,,-99.99,,2013-05-15 05:32:00,
2013-05-15 01:42:00,72.0,57.0,29.97,WNW,282,6.0,-999.0,59,-99.99,,,-99.99,,2013-05-15 05:42:00,
2013-05-15 01:52:00,72.0,57.0,29.97,West,262,7.0,-999.0,60,-99.99,,,-99.99,,2013-05-15 05:52:00,
2013-05-15 02:02:00,72.0,57.0,29.98,South,189,6.0,-999.0,60,-99.99,,,-99.99,,2013-05-15 06:02:00,
2013-05-15 02:11:00,72.0,57.0,29.98,South,189,6.0,-999.0,60,-99.99,,,-99.99,,2013-05-15 06:11:00,
2013-05-15 02:21:00,72.0,58.0,29.97,WSW,255,8.0,-999.0,61,-99.99,,,-99.99,,2013-05-15 06:21:00,
2013-05-15 02:32:00,72.0,58.0,29.97,West,269,7.0,-999.0,61,-99.99,,,-99.99,,2013-05-15 06:32:00,
2013-05-15 02:42:00,72.0,58.0,29.97,West,269,7.0,-999.0,61,-99.99,,,-99.99,,2013-05-15 06:42:00,
2013-05-15 02:52:00,71.0,57.0,29.97,SSW,206,7.0,-999.0,62,-99.99,,,-99.99,,2013-05-15 06:52:00,
2013-05-15 03:01:00,71.0,57.0,29.96,West,271,7.0,-999.0,62,-99.99,,,-99.99,,2013-05-15 07:01:00,
2013-05-15 03:11:00,71.0,57.0,29.96,West,271,7.0,-999.0,62,-99.99,,,-99.99,,2013-05-15 07:11:00,
2013-05-15 03:22:00,71.0,57.0,29.96,WSW,256,7.0,-999.0,62,-99.99,,,-99.99,,2013-05-15 07:22:00,
2013-05-15 03:32:00,71.0,58.0,29.96,WSW,240,6.0,-999.0,63,-99.99,,,-99.99,,2013-05-15 07:32:00,
2013-05-15 03:42:00,71.0,58.0,29.96,WSW,240,6.0,-999.0,63,-99.99,,,-99.99,,2013-05-15 07:42:00,
2013-05-15 03:52:00,71.0,58.0,29.96,West,266,7.0,-999.0,63,-99.99,,,-99.99,,2013-05-15 07:52:00,
2013-05-15 04:02:00,71.0,58.0,29.95,West,279,6.0,-999.0,64,-99.99,,,-99.99,,2013-05-15 08:02:00,
2013-05-15 04:12:00,71.0,58.0,29.95,West,279,6.0,-999.0,64,-99.99,,,-99.99,,2013-05-15 08:12:00,
2013-05-15 04:21:00,71.0,58.0,29.95,WNW,295,8.0,-999.0,63,-99.99,,,-99.99,,2013-05-15 08:21:00,
2013-05-15 04:32:00,71.0,58.0,29.95,WSW,246,6.0,-999.0,63,-99.99,,,-99.99,,2013-05-15 08:32:00,
2013-05-15 04:42:00,71.0,58.0,29.96,West,274,7.0,-999.0,63,-99.99,,,-99.99,,2013-05-15 08:42:00,
2013-05-15 04:53:00,71.0,58.0,29.96,West,274,7.0,-999.0,63,-99.99,,,-99.99,,2013-05-15 08:53:00,
2013-05-15 05:01:00,70.0,57.0,29.95,WSW,247,7.0,-999.0,63,-99.99,,,-99.99,,2013-05-15 09:01:00,
2013-05-15 05:12:00,70.0,57.0,29.95,WSW,247,7.0,-999.0,63,-99.99,,,-99.99,,2013-05-15 09:12:00,
2013-05-15 05:21:00,70.0,57.0,29.96,West,265,6.0,-999.0,64,-99.99,,,-99.99,,2013-05-15 09:21:00,
2013-05-15 05:33:00,70.0,57.0,29.96,West,261,6.0,-999.0,64,-99.99,,,-99.99,,2013-05-15 09:33:00,
2013-05-15 05:42:00,70.0,57.0,29.96,West,261,6.0,-999.0,64,-99.99,,,-99.99,,2013-05-15 09:42:00,
2013-05-15 05:53:00,70.0,57.0,29.96,West,277,5.0,-999.0,64,-99.99,,,-99.99,,2013-05-15 09:53:00,
2013-05-15 06:02:00,70.0,57.0,29.96,West,281,6.0,-999.0,64,-99.99,,,-99.99,,2013-05-15 10:02:00,
2013-05-15 06:13:00,70.0,57.0,29.96,West,281,6.0,-999.0,64,-99.99,,,-99.99,,2013-05-15 10:13:00,
2013-05-15 06:22:00,70.0,57.0,29.97,West,281,6.0,-999.0,64,-99.99,,,-99.99,,2013-05-15 10:22:00,
2013-05-15 06:32:00,69.0,56.0,29.97,West,261,7.0,-999.0,64,-99.99,,,-99.99,,2013-05-15 10:32:00,
2013-05-15 06:42:00,69.0,56.0,29.97,West,261,7.0,-999.0,64,-99.99,,,-99.99,,2013-05-15 10:42:00,
2013-05-15 06:52:00,69.0,57.0,29.98,West,273,6.0,-999.0,65,-99.99,,,-99.99,,2013-05-15 10:52:00,
2013-05-15 07:12:00,69.0,57.0,29.98,SW,234,7.0,-999.0,65,-99.99,,,-99.99,,2013-05-15 11:12:00,
2013-05-15 07:19:00,69.0,57.0,29.98,SW,234,7.0,-999.0,65,-99.99,,,-99.99,,2013-05-15 11:19:00,
2013-05-15 07:27:00,69.0,57.0,29.98,WSW,257,7.0,-999.0,65,-99.99,,,-99.99,,2013-05-15 11:27:00,
2013-05-15 07:38:00,69.0,57.0,29.99,West,279,6.0,-999.0,65,-99.99,,,-99.99,,2013-05-15 11:38:00,
2013-05-15 07:48:00,69.0,57.0,29.99,West,279,6.0,-999.0,65,-99.99,,,-99.99,,2013-05-15 11:48:00,
2013-05-15 07:56:00,69.0,57.0,30.00,WSW,256,7.0,-999.0,65,-99.99,,,-99.99,,2013-05-15 11:56:00,
2013-05-15 08:10:00,69.0,57.0,30.00,West,259,7.0,-999.0,65,-99.99,,,-99.99,,2013-05-15 12:10:00,
2013-05-15 08:16:00,69.0,57.0,30.00,West,259,7.0,-999.0,65,-99.99,,,-99.99,,2013-05-15 12:16:00,
2013-05-15 08:29:00,70.0,57.0,30.01,West,269,6.0,-999.0,64,-99.99,,,-99.99,,2013-05-15 12:29:00,
2013-05-15 08:37:00,71.0,58.0,30.01,West,279,6.0,-999.0,64,-99.99,,,-99.99,,2013-05-15 12:37:00,
2013-05-15 08:48:00,71.0,58.0,30.01,West,279,6.0,-999.0,64,-99.99,,,-99.99,,2013-05-15 12:48:00,
2013-05-15 08:54:00,71.0,58.0,30.01,WSW,246,6.0,-999.0,63,-99.99,,,-99.99,,2013-05-15 12:54:00,
2013-05-15 09:10:00,72.0,59.0,30.02,WSW,238,8.0,-999.0,63,-99.99,,,-99.99,,2013-05-15 13:10:00,
2013-05-15 09:19:00,72.0,59.0,30.02,WSW,238,8.0,-999.0,63,-99.99,,,-99.99,,2013-05-15 13:19:00,
2013-05-15 09:26:00,72.0,59.0,30.03,SW,234,8.0,-999.0,64,-99.99,,,-99.99,,2013-05-15 13:26:00,
2013-05-15 09:47:00,73.0,60.0,30.03,WSW,254,10.0,-999.0,63,-99.99,,,-99.99,,2013-05-15 13:47:00,
2013-05-15 09:57:00,73.0,59.0,30.03,WNW,289,10.0,-999.0,61,-99.99,,,-99.99,,2013-05-15 13:57:00,
2013-05-15 10:07:00,74.0,59.0,30.03,WNW,284,10.0,-999.0,60,-99.99,,,-99.99,,2013-05-15 14:07:00,
2013-05-15 10:14:00,74.0,59.0,30.03,WNW,284,10.0,-999.0,60,-99.99,,,-99.99,,2013-05-15 14:14:00,
2013-05-15 10:27:00,74.0,60.0,30.03,WNW,284,9.0,-999.0,62,-99.99,,,-99.99,,2013-05-15 14:27:00,
2013-05-15 10:38:00,75.0,60.0,30.03,West,267,9.0,-999.0,60,-99.99,,,-99.99,,2013-05-15 14:38:00,
2013-05-15 10:54:00,75.0,59.0,30.03,West,260,9.0,-999.0,58,-99.99,,,-99.99,,2013-05-15 14:54:00,
2013-05-15 11:16:00,76.0,60.0,30.03,WNW,295,10.0,-999.0,58,-99.99,,,-99.99,,2013-05-15 15:16:00,
2013-05-15 11:28:00,76.0,61.0,30.03,West,281,8.0,-999.0,59,-99.99,,,-99.99,,2013-05-15 15:28:00,
2013-05-15 11:38:00,77.0,61.0,30.03,West,271,9.0,-999.0,57,-99.99,,,-99.99,,2013-05-15 15:38:00,
2013-05-15 11:48:00,77.0,61.0,30.03,West,271,9.0,-999.0,57,-99.99,,,-99.99,,2013-05-15 15:48:00,
2013-05-15 11:57:00,78.0,61.0,30.03,WNW,288,8.0,-999.0,56,-99.99,,,-99.99,,2013-05-15 15:57:00,
2013-05-15 12:28:00,79.0,62.0,30.03,WSW,255,9.0,-999.0,56,-99.99,,,-99.99,,2013-05-15 16:28:00,
2013-05-15 12:38:00,79.0,60.0,30.02,WSW,239,9.0,-999.0,53,-99.99,,,-99.99,,2013-05-15 16:38:00,
2013-05-15 12:49:00,79.0,60.0,30.02,WSW,239,9.0,-999.0,53,-99.99,,,-99.99,,2013-05-15 16:49:00,
2013-05-15 12:54:00,79.0,60.0,30.02,WNW,284,11.0,-999.0,53,-99.99,,,-99.99,,2013-05-15 16:54:00,
2013-05-15 13:11:00,80.0,60.0,30.01,West,261,8.0,-999.0,51,-99.99,,,-99.99,,2013-05-15 17:11:00,
2013-05-15 13:27:00,81.0,61.0,30.01,WNW,290,8.0,-999.0,51,-99.99,,,-99.99,,2013-05-15 17:27:00,
2013-05-15 13:38:00,81.0,61.0,30.01,WSW,257,9.0,-999.0,51,-99.99,,,-99.99,,2013-05-15 17:38:00,
2013-05-15 13:47:00,81.0,61.0,30.01,WSW,257,9.0,-999.0,51,-99.99,,,-99.99,,2013-05-15 17:47:00,
2013-05-15 13:56:00,81.0,60.0,30.01,NW,317,8.0,-999.0,49,-99.99,,,-99.99,,2013-05-15 17:56:00,
2013-05-15 14:07:00,82.0,60.0,30.00,West,278,8.0,-999.0,47,-99.99,,,-99.99,,2013-05-15 18:07:00,
2013-05-15 14:16:00,82.0,60.0,30.00,West,278,8.0,-999.0,47,-99.99,,,-99.99,,2013-05-15 18:16:00,
2013-05-15 14:27:00,82.0,59.0,30.00,WNW,290,8.0,-999.0,46,-99.99,,,-99.99,,2013-05-15 18:27:00,
2013-05-15 14:37:00,83.0,59.0,30.00,West,274,8.0,-999.0,44,-99.99,,,-99.99,,2013-05-15 18:37:00,
2013-05-15 14:47:00,83.0,59.0,30.00,West,274,8.0,-999.0,44,-99.99,,,-99.99,,2013-05-15 18:47:00,
2013-05-15 15:09:00,83.0,58.0,29.98,WNW,282,10.0,-999.0,43,-99.99,,,-99.99,,2013-05-15 19:09:00,
2013-05-15 15:16:00,83.0,58.0,29.98,WNW,282,10.0,-999.0,43,-99.99,,,-99.99,,2013-05-15 19:16:00,
2013-05-15 15:30:00,84.0,60.0,29.98,WSW,253,8.0,-999.0,44,-99.99,,,-99.99,,2013-05-15 19:30:00,
2013-05-15 15:38:00,84.0,57.0,29.97,West,266,7.0,-999.0,40,-99.99,,,-99.99,,2013-05-15 19:38:00,
2013-05-15 15:47:00,84.0,57.0,29.97,West,266,7.0,-999.0,40,-99.99,,,-99.99,,2013-05-15 19:47:00,
2013-05-15 15:54:00,84.0,58.0,29.98,WNW,282,8.0,-999.0,41,-99.99,,,-99.99,,2013-05-15 19:54:00,
2013-05-15 16:09:00,84.0,55.0,29.97,West,268,8.0,-999.0,37,-99.99,,,-99.99,,2013-05-15 20:09:00,
2013-05-15 16:20:00,84.0,55.0,29.97,West,268,8.0,-999.0,37,-99.99,,,-99.99,,2013-05-15 20:20:00,
2013-05-15 16:29:00,85.0,59.0,29.96,West,281,9.0,-999.0,41,-99.99,,,-99.99,,2013-05-15 20:29:00,
2013-05-15 16:40:00,85.0,57.0,29.96,WSW,248,8.0,-999.0,39,-99.99,,,-99.99,,2013-05-15 20:40:00,
2013-05-15 16:47:00,85.0,57.0,29.96,WSW,248,8.0,-999.0,39,-99.99,,,-99.99,,2013-05-15 20:47:00,
2013-05-15 16:53:00,84.0,55.0,29.95,WNW,282,11.0,-999.0,37,-99.99,,,-99.99,,2013-05-15 20:53:00,
2013-05-15 17:09:00,85.0,55.0,29.95,WSW,252,10.0,-999.0,36,-99.99,,,-99.99,,2013-05-15 21:09:00,
2013-05-15 17:41:00,85.0,55.0,29.94,West,259,8.0,-999.0,36,-99.99,,,-99.99,,2013-05-15 21:41:00,
2013-05-15 17:51:00,85.0,55.0,29.94,West,259,8.0,-999.0,36,-99.99,,,-99.99,,2013-05-15 21:51:00,
2013-05-15 18:11:00,85.0,54.0,29.93,West,261,8.0,-999.0,35,-99.99,,,-99.99,,2013-05-15 22:11:00,
2013-05-15 18:19:00,85.0,54.0,29.93,West,261,8.0,-999.0,35,-99.99,,,-99.99,,2013-05-15 22:19:00,
2013-05-15 18:29:00,85.0,53.0,29.92,WSW,244,7.0,-999.0,34,-99.99,,,-99.99,,2013-05-15 22:29:00,
2013-05-15 18:40:00,84.0,53.0,29.92,WNW,286,8.0,-999.0,35,-99.99,,,-99.99,,2013-05-15 22:40:00,
2013-05-15 18:50:00,84.0,53.0,29.92,WNW,286,8.0,-999.0,35,-99.99,,,-99.99,,2013-05-15 22:50:00,
2013-05-15 19:17:00,84.0,53.0,29.91,WSW,256,6.0,-999.0,35,-99.99,,,-99.99,,2013-05-15 23:17:00,
2013-05-15 19:28:00,83.0,51.0,29.91,WSW,258,8.0,-999.0,33,-99.99,,,-99.99,,2013-05-15 23:28:00,
2013-05-15 19:39:00,83.0,52.0,29.91,WNW,297,7.0,-999.0,35,-99.99,,,-99.99,,2013-05-15 23:39:00,
2013-05-15 19:50:00,83.0,52.0,29.91,WNW,297,7.0,-999.0,35,-99.99,,,-99.99,,2013-05-15 23:50:00,
2013-05-15 20:08:00,82.0,53.0,29.91,WSW,250,4.0,-999.0,37,-99.99,,,-99.99,,2013-05-16 00:08:00,
2013-05-15 20:18:00,82.0,53.0,29.91,WSW,250,4.0,-999.0,37,-99.99,,,-99.99,,2013-05-16 00:18:00,
2013-05-15 20:27:00,81.0,54.0,29.91,West,274,3.0,-999.0,40,-99.99,,,-99.99,,2013-05-16 00:27:00,
2013-05-15 20:36:00,80.0,55.0,29.92,WNW,283,4.0,-999.0,43,-99.99,,,-99.99,,2013-05-16 00:36:00,
2013-05-15 20:51:00,79.0,56.0,29.93,West,268,2.0,-999.0,45,-99.99,,,-99.99,,2013-05-16 00:51:00,
2013-05-15 21:18:00,76.0,58.0,29.93,West,268,0.0,-999.0,53,-99.99,,,-99.99,,2013-05-16 01:18:00,
2013-05-15 21:30:00,76.0,58.0,29.93,West,268,0.0,-999.0,53,-99.99,,,-99.99,,2013-05-16 01:30:00,
2013-05-15 21:38:00,73.0,57.0,29.93,West,268,0.0,-999.0,57,-99.99,,,-99.99,,2013-05-16 01:38:00,
2013-05-15 21:48:00,73.0,57.0,29.93,West,268,0.0,-999.0,57,-99.99,,,-99.99,,2013-05-16 01:48:00,
2013-05-15 21:56:00,71.0,58.0,29.93,West,268,0.0,-999.0,63,-99.99,,,-99.99,,2013-05-16 01:56:00,
2013-05-15 22:08:00,69.0,57.0,29.93,West,268,0.0,-999.0,66,-99.99,,,-99.99,,2013-05-16 02:08:00,
2013-05-15 22:18:00,69.0,57.0,29.93,West,268,0.0,-999.0,66,-99.99,,,-99.99,,2013-05-16 02:18:00,
2013-05-15 22:28:00,67.0,56.0,29.95,West,268,0.0,-999.0,69,-99.99,,,-99.99,,2013-05-16 02:28:00,
2013-05-15 22:39:00,66.0,57.0,29.95,West,268,0.0,-999.0,73,-99.99,,,-99.99,,2013-05-16 02:39:00,
2013-05-15 22:46:00,66.0,57.0,29.95,West,268,0.0,-999.0,73,-99.99,,,-99.99,,2013-05-16 02:46:00,
2013-05-15 22:54:00,66.0,57.0,29.95,West,268,0.0,-999.0,73,-99.99,,,-99.99,,2013-05-16 02:54:00,
2013-05-15 23:07:00,64.0,57.0,29.96,West,268,0.0,-999.0,77,-99.99,,,-99.99,,2013-05-16 03:07:00,
2013-05-15 23:17:00,64.0,57.0,29.96,West,268,0.0,-999.0,77,-99.99,,,-99.99,,2013-05-16 03:17:00,
2013-05-15 23:26:00,64.0,55.0,29.95,West,268,0.0,-999.0,73,-99.99,,,-99.99,,2013-05-16 03:26:00,
2013-05-15 23:38:00,66.0,53.0,29.96,West,268,1.0,-999.0,62,-99.99,,,-99.99,,2013-05-16 03:38:00,
2013-05-15 23:46:00,66.0,53.0,29.96,West,268,1.0,-999.0,62,-99.99,,,-99.99,,2013-05-16 03:46:00,